Time,TemperatureF,DewpointF,PressureIn,WindDirection,WindDirectionDegrees,WindSpeedMPH,WindSpeedGustMPH,Humidity,HourlyPrecipIn,Conditions,Clouds,dailyrainin,SoftwareType,DateUTC
2013-04-03 00:00:00,43.9,33.7,30.18,SE,133,0.0,0.0,67,0.00,,SCT,0.00,VWS V14.01,2013-04-03 07:00:00,
2013-04-03 00:04:00,43.7,33.5,30.18,SE,130,0.0,0.0,67,0.00,,SCT,0.00,VWS V14.01,2013-04-03 07:04:00,
2013-04-03 00:09:00,43.9,33.7,30.18,ESE,109,0.0,0.0,67,0.00,,SCT,0.00,VWS V14.01,2013-04-03 07:09:00,
2013-04-03 00:14:00,43.9,33.7,30.18,SSE,152,0.0,0.0,67,0.00,,SCT,0.00,VWS V14.01,2013-04-03 07:14:00,
2013-04-03 00:15:00,43.7,33.5,30.18,ESE,120,0.0,0.0,67,0.00,,SCT,0.00,VWS V14.01,2013-04-03 07:15:00,
2013-04-03 00:19:00,43.5,33.3,30.18,SSE,150,3.6,4.9,67,0.00,,SCT,0.00,VWS V14.01,2013-04-03 07:19:00,
2013-04-03 00:24:00,43.2,33.7,30.18,SSE,147,0.0,6.3,69,0.00,,SCT,0.00,VWS V14.01,2013-04-03 07:24:00,
2013-04-03 00:29:00,42.6,33.9,30.18,East,99,3.1,6.3,71,0.00,,SCT,0.00,VWS V14.01,2013-04-03 07:29:00,
2013-04-03 00:30:00,42.6,33.9,30.18,East,100,0.0,6.3,71,0.00,,SCT,0.00,VWS V14.01,2013-04-03 07:30:00,
2013-04-03 00:35:00,42.3,33.9,30.18,East,91,0.0,3.1,72,0.00,,SCT,0.00,VWS V14.01,2013-04-03 07:35:00,
2013-04-03 00:40:00,42.1,33.7,30.18,SE,135,0.0,6.3,72,0.00,,SCT,0.00,VWS V14.01,2013-04-03 07:40:00,
2013-04-03 00:45:00,42.1,33.7,30.18,SE,140,0.0,6.3,72,0.00,,SCT,0.00,VWS V14.01,2013-04-03 07:45:00,
2013-04-03 00:50:00,41.9,33.5,30.18,SSE,152,0.0,5.4,72,0.00,,SCT,0.00,VWS V14.01,2013-04-03 07:50:00,
2013-04-03 00:55:00,41.7,33.4,30.18,SSE,149,4.9,5.4,72,0.00,,SCT,0.00,VWS V14.01,2013-04-03 07:55:00,
2013-04-03 01:00:00,41.7,33.7,30.18,SSE,156,0.0,0.0,73,0.00,,SCT,0.00,VWS V14.01,2013-04-03 08:00:00,
2013-04-03 01:05:00,41.5,33.9,30.18,SE,142,4.0,5.8,74,0.00,,SCT,0.00,VWS V14.01,2013-04-03 08:05:00,
2013-04-03 01:10:00,41.4,33.7,30.18,SW,219,0.0,5.8,74,0.00,,SCT,0.00,VWS V14.01,2013-04-03 08:10:00,
2013-04-03 01:15:00,41.4,34.0,30.18,SSW,207,0.0,0.0,75,0.00,,SCT,0.00,VWS V14.01,2013-04-03 08:15:00,
2013-04-03 01:21:00,41.4,34.4,30.18,SE,134,0.0,3.6,76,0.00,,SCT,0.00,VWS V14.01,2013-04-03 08:21:00,
2013-04-03 01:26:00,41.2,34.2,30.18,SSE,158,5.4,5.4,76,0.00,,SCT,0.00,VWS V14.01,2013-04-03 08:26:00,
2013-04-03 01:30:00,41.2,34.5,30.18,South,189,0.0,5.4,77,0.00,,SCT,0.00,VWS V14.01,2013-04-03 08:30:00,
2013-04-03 01:31:00,41.2,34.5,30.18,SSE,165,0.0,0.0,77,0.00,,SCT,0.00,VWS V14.01,2013-04-03 08:31:00,
2013-04-03 01:36:00,41.2,34.5,30.18,SSE,147,0.0,0.0,77,0.00,,SCT,0.00,VWS V14.01,2013-04-03 08:36:00,
2013-04-03 01:41:00,41.2,34.2,30.18,SSW,196,0.0,0.0,76,0.00,,SCT,0.00,VWS V14.01,2013-04-03 08:41:00,
2013-04-03 01:45:00,41.2,34.2,30.18,SSE,152,0.0,0.0,76,0.00,,SCT,0.00,VWS V14.01,2013-04-03 08:45:00,
2013-04-03 01:46:00,41.2,34.2,30.18,SSW,198,0.0,0.0,76,0.00,,SCT,0.00,VWS V14.01,2013-04-03 08:46:00,
2013-04-03 01:51:00,41.2,33.9,30.18,SSE,149,0.0,0.0,75,0.00,,SCT,0.00,VWS V14.01,2013-04-03 08:51:00,
2013-04-03 01:56:00,41.2,33.9,30.18,SW,218,0.0,0.0,75,0.00,,SCT,0.00,VWS V14.01,2013-04-03 08:56:00,
2013-04-03 02:00:00,41.0,33.7,30.18,SSW,206,0.0,0.0,75,0.00,,SCT,0.00,VWS V14.01,2013-04-03 09:00:00,
2013-04-03 02:01:00,41.0,33.7,30.18,SSW,199,0.0,0.0,75,0.00,,SCT,0.00,VWS V14.01,2013-04-03 09:01:00,
2013-04-03 02:06:00,41.0,33.4,30.18,South,190,0.0,5.4,74,0.00,,SCT,0.00,VWS V14.01,2013-04-03 09:06:00,
2013-04-03 02:12:00,41.0,33.4,30.18,SSE,152,0.0,5.4,74,0.00,,SCT,0.00,VWS V14.01,2013-04-03 09:12:00,
2013-04-03 02:15:00,40.8,33.2,30.18,SSE,159,0.0,5.4,74,0.00,,SCT,0.00,VWS V14.01,2013-04-03 09:15:00,
2013-04-03 02:17:00,40.8,33.5,30.18,SSW,195,3.6,6.3,75,0.00,,SCT,0.00,VWS V14.01,2013-04-03 09:17:00,
2013-04-03 02:22:00,40.6,33.7,30.18,SW,223,0.0,6.3,76,0.00,,SCT,0.00,VWS V14.01,2013-04-03 09:22:00,
2013-04-03 02:27:00,40.8,33.8,30.21,West,271,0.0,6.3,76,0.00,,SCT,0.00,VWS V14.01,2013-04-03 09:27:00,
2013-04-03 02:30:00,40.8,33.8,30.21,West,270,0.0,6.3,76,0.00,,SCT,0.00,VWS V14.01,2013-04-03 09:30:00,
2013-04-03 02:32:00,40.8,34.2,30.21,SSW,192,0.0,0.0,77,0.00,,SCT,0.00,VWS V14.01,2013-04-03 09:32:00,
2013-04-03 02:37:00,40.8,34.2,30.21,SSW,192,0.0,0.0,77,0.00,,SCT,0.00,VWS V14.01,2013-04-03 09:37:00,
2013-04-03 02:42:00,40.8,34.5,30.18,South,179,0.0,0.0,78,0.00,,SCT,0.00,VWS V14.01,2013-04-03 09:42:00,
2013-04-03 02:45:00,41.0,34.7,30.18,South,185,0.0,0.0,78,0.00,,SCT,0.00,VWS V14.01,2013-04-03 09:45:00,
2013-04-03 02:47:00,41.0,35.0,30.18,South,184,0.0,0.0,79,0.00,,SCT,0.00,VWS V14.01,2013-04-03 09:47:00,
2013-04-03 02:52:00,41.0,35.3,30.18,SSE,163,0.0,5.4,80,0.00,,SCT,0.00,VWS V14.01,2013-04-03 09:52:00,
2013-04-03 02:57:00,41.0,35.6,30.18,SSE,152,4.0,5.8,81,0.00,,SCT,0.00,VWS V14.01,2013-04-03 09:57:00,
2013-04-03 03:00:00,40.8,35.8,30.18,SSE,149,6.3,7.6,82,0.00,,SCT,0.00,VWS V14.01,2013-04-03 10:00:00,
2013-04-03 03:02:00,40.8,35.8,30.18,South,190,3.1,6.3,82,0.00,,SCT,0.00,VWS V14.01,2013-04-03 10:02:00,
2013-04-03 03:07:00,40.6,35.6,30.18,South,181,0.0,6.3,82,0.00,,SCT,0.00,VWS V14.01,2013-04-03 10:07:00,
2013-04-03 03:12:00,40.5,35.4,30.18,South,182,0.0,6.3,82,0.00,,SCT,0.00,VWS V14.01,2013-04-03 10:12:00,
2013-04-03 03:15:00,40.5,35.7,30.18,SW,220,0.0,6.3,83,0.00,,SCT,0.00,VWS V14.01,2013-04-03 10:15:00,
2013-04-03 03:17:00,40.3,35.5,30.18,SW,236,0.0,0.0,83,0.00,,SCT,0.00,VWS V14.01,2013-04-03 10:17:00,
2013-04-03 03:22:00,40.3,35.5,30.18,South,184,0.0,0.0,83,0.00,,SCT,0.00,VWS V14.01,2013-04-03 10:22:00,
2013-04-03 03:28:00,40.1,35.4,30.18,SW,233,0.0,0.0,83,0.00,,SCT,0.00,VWS V14.01,2013-04-03 10:28:00,
2013-04-03 03:30:00,39.9,35.2,30.18,SSW,205,0.0,0.0,83,0.00,,SCT,0.00,VWS V14.01,2013-04-03 10:30:00,
2013-04-03 03:33:00,39.9,35.2,30.18,SSW,205,0.0,0.0,83,0.00,,SCT,0.00,VWS V14.01,2013-04-03 10:33:00,
2013-04-03 03:38:00,39.7,35.3,30.18,SSE,166,0.0,0.0,84,0.00,,SCT,0.00,VWS V14.01,2013-04-03 10:38:00,
2013-04-03 03:43:00,39.6,35.1,30.18,South,185,4.0,4.9,84,0.00,,SCT,0.00,VWS V14.01,2013-04-03 10:43:00,
2013-04-03 03:45:00,39.4,35.3,30.18,South,185,0.0,4.9,85,0.00,,SCT,0.00,VWS V14.01,2013-04-03 10:45:00,
2013-04-03 03:48:00,39.4,35.2,30.18,South,178,0.0,0.0,85,0.00,,SCT,0.00,VWS V14.01,2013-04-03 10:48:00,
2013-04-03 03:53:00,39.2,35.1,30.18,South,176,0.0,0.0,85,0.00,,SCT,0.00,VWS V14.01,2013-04-03 10:53:00,
2013-04-03 03:58:00,39.0,35.2,30.18,South,191,0.0,0.0,86,0.00,,SCT,0.00,VWS V14.01,2013-04-03 10:58:00,
2013-04-03 04:00:00,39.0,35.2,30.18,South,191,0.0,0.0,86,0.00,,SCT,0.00,VWS V14.01,2013-04-03 11:00:00,
2013-04-03 04:03:00,39.0,35.2,30.18,South,191,0.0,0.0,86,0.00,,SCT,0.00,VWS V14.01,2013-04-03 11:03:00,
2013-04-03 04:08:00,38.8,35.3,30.18,SW,232,0.0,0.0,87,0.00,,SCT,0.00,VWS V14.01,2013-04-03 11:08:00,
2013-04-03 04:13:00,38.7,35.1,30.18,South,180,0.0,0.0,87,0.00,,SCT,0.00,VWS V14.01,2013-04-03 11:13:00,
2013-04-03 04:15:00,38.7,35.1,30.18,SW,226,0.0,0.0,87,0.00,,SCT,0.00,VWS V14.01,2013-04-03 11:15:00,
2013-04-03 04:19:00,38.7,35.4,30.18,SW,227,0.0,0.0,88,0.00,,SCT,0.00,VWS V14.01,2013-04-03 11:19:00,
2013-04-03 04:24:00,38.5,35.2,30.18,SSW,192,0.0,0.0,88,0.00,,SCT,0.00,VWS V14.01,2013-04-03 11:24:00,
2013-04-03 04:29:00,38.5,35.2,30.18,SSW,205,0.0,0.0,88,0.00,,SCT,0.00,VWS V14.01,2013-04-03 11:29:00,
2013-04-03 04:30:00,38.5,35.2,30.18,SSW,205,0.0,0.0,88,0.00,,SCT,0.00,VWS V14.01,2013-04-03 11:30:00,
2013-04-03 04:34:00,38.3,35.1,30.18,South,177,0.0,0.0,88,0.00,,SCT,0.00,VWS V14.01,2013-04-03 11:34:00,
2013-04-03 04:39:00,38.3,35.1,30.18,South,183,0.0,0.0,88,0.00,,SCT,0.00,VWS V14.01,2013-04-03 11:39:00,
2013-04-03 04:44:00,38.3,34.8,30.18,South,182,0.0,0.0,87,0.00,,SCT,0.00,VWS V14.01,2013-04-03 11:44:00,
2013-04-03 04:45:00,38.3,34.8,30.18,South,182,0.0,0.0,87,0.00,,SCT,0.00,VWS V14.01,2013-04-03 11:45:00,
2013-04-03 04:49:00,38.5,35.0,30.18,South,170,0.0,0.0,87,0.00,,SCT,0.00,VWS V14.01,2013-04-03 11:49:00,
2013-04-03 04:54:00,38.3,34.5,30.18,SE,129,0.0,5.4,86,0.00,,SCT,0.00,VWS V14.01,2013-04-03 11:54:00,
2013-04-03 04:59:00,38.1,34.0,30.18,ESE,109,0.0,5.4,85,0.00,,SCT,0.00,VWS V14.01,2013-04-03 11:59:00,
2013-04-03 05:00:00,38.1,34.0,30.18,ESE,109,0.0,5.4,85,0.00,,SCT,0.00,VWS V14.01,2013-04-03 12:00:00,
2013-04-03 05:04:00,38.1,34.0,30.18,SE,137,0.0,4.9,85,0.00,,SCT,0.00,VWS V14.01,2013-04-03 12:04:00,
2013-04-03 05:09:00,37.9,33.8,30.18,SSW,195,4.9,6.7,85,0.00,,SCT,0.00,VWS V14.01,2013-04-03 12:09:00,
2013-04-03 05:14:00,37.6,33.8,30.18,SSE,153,3.6,8.7,86,0.00,,SCT,0.00,VWS V14.01,2013-04-03 12:14:00,
2013-04-03 05:15:00,37.6,33.8,30.18,South,180,0.0,8.7,86,0.00,,SCT,0.00,VWS V14.01,2013-04-03 12:15:00,
2013-04-03 05:19:00,37.4,33.9,30.18,SSE,152,5.8,6.3,87,0.00,,SCT,0.00,VWS V14.01,2013-04-03 12:19:00,
2013-04-03 05:24:00,37.4,34.2,30.18,SE,129,0.0,6.3,88,0.00,,SCT,0.00,VWS V14.01,2013-04-03 12:24:00,
2013-04-03 05:29:00,37.4,34.5,30.18,SE,134,0.0,6.3,89,0.00,,SCT,0.00,VWS V14.01,2013-04-03 12:29:00,
2013-04-03 05:30:00,37.4,34.5,30.18,SE,134,0.0,6.3,89,0.00,,SCT,0.00,VWS V14.01,2013-04-03 12:30:00,
2013-04-03 05:35:00,37.2,34.6,30.18,SSE,166,0.0,5.8,90,0.00,,SCT,0.00,VWS V14.01,2013-04-03 12:35:00,
2013-04-03 05:40:00,37.4,34.7,30.18,East,101,0.0,6.3,90,0.00,,SCT,0.00,VWS V14.01,2013-04-03 12:40:00,
2013-04-03 05:45:00,37.4,34.7,30.18,SSW,199,5.8,5.8,90,0.00,,SCT,0.00,VWS V14.01,2013-04-03 12:45:00,
2013-04-03 05:50:00,37.4,34.7,30.18,East,85,0.0,5.8,90,0.00,,SCT,0.00,VWS V14.01,2013-04-03 12:50:00,
2013-04-03 05:55:00,37.2,34.6,30.18,East,84,0.0,5.8,90,0.00,,SCT,0.00,VWS V14.01,2013-04-03 12:55:00,
2013-04-03 06:00:00,37.2,34.6,30.18,SE,132,0.0,0.0,90,0.00,,SCT,0.00,VWS V14.01,2013-04-03 13:00:00,
2013-04-03 06:05:00,37.0,34.4,30.18,SSE,166,0.0,2.2,90,0.00,,SCT,0.00,VWS V14.01,2013-04-03 13:05:00,
2013-04-03 06:10:00,37.0,34.4,30.18,SSW,192,5.4,5.8,90,0.00,,SCT,0.00,VWS V14.01,2013-04-03 13:10:00,
2013-04-03 06:15:00,37.0,34.7,30.18,SE,134,0.0,4.0,91,0.00,,SCT,0.00,VWS V14.01,2013-04-03 13:15:00,
2013-04-03 06:20:00,36.9,34.8,30.18,SSE,166,0.0,5.8,92,0.00,,SCT,0.00,VWS V14.01,2013-04-03 13:20:00,
2013-04-03 06:25:00,36.9,35.0,30.18,SE,141,4.0,8.3,93,0.00,,SCT,0.00,VWS V14.01,2013-04-03 13:25:00,
2013-04-03 06:30:00,36.9,35.0,30.18,ENE,71,0.0,0.0,93,0.00,,SCT,0.00,VWS V14.01,2013-04-03 13:30:00,
2013-04-03 06:36:00,36.7,34.8,30.18,SSW,202,4.0,5.8,93,0.00,,SCT,0.00,VWS V14.01,2013-04-03 13:36:00,
2013-04-03 06:40:00,36.5,34.4,30.18,SSW,194,0.0,5.8,92,0.00,,SCT,0.00,VWS V14.01,2013-04-03 13:40:00,
2013-04-03 06:45:00,36.3,34.0,30.18,South,191,3.1,6.3,91,0.00,,SCT,0.00,VWS V14.01,2013-04-03 13:45:00,
2013-04-03 06:46:00,36.3,34.0,30.18,South,180,0.0,3.1,91,0.00,,SCT,0.00,VWS V14.01,2013-04-03 13:46:00,
2013-04-03 06:51:00,36.3,33.7,30.18,SSE,159,0.0,5.4,90,0.00,,SCT,0.00,VWS V14.01,2013-04-03 13:51:00,
2013-04-03 06:56:00,36.3,34.0,30.18,SSE,153,0.0,5.4,91,0.00,,SCT,0.00,VWS V14.01,2013-04-03 13:56:00,
2013-04-03 07:00:00,36.3,34.0,30.18,SE,135,4.0,5.4,91,0.00,,SCT,0.00,VWS V14.01,2013-04-03 14:00:00,
2013-04-03 07:01:00,36.3,34.0,30.18,SW,221,2.7,8.3,91,0.00,,SCT,0.00,VWS V14.01,2013-04-03 14:01:00,
2013-04-03 07:06:00,36.5,34.4,30.18,South,176,6.7,8.3,92,0.00,,SCT,0.00,VWS V14.01,2013-04-03 14:06:00,
2013-04-03 07:11:00,36.5,34.4,30.18,ESE,123,5.4,8.3,92,0.00,,SCT,0.00,VWS V14.01,2013-04-03 14:11:00,
2013-04-03 07:15:00,36.7,34.6,30.18,SSE,168,3.6,8.3,92,0.00,,SCT,0.00,VWS V14.01,2013-04-03 14:15:00,
2013-04-03 07:16:00,36.7,34.8,30.18,SE,146,2.2,5.4,93,0.00,,SCT,0.00,VWS V14.01,2013-04-03 14:16:00,
2013-04-03 07:22:00,36.5,34.4,30.18,SSE,151,0.0,5.4,92,0.00,,SCT,0.00,VWS V14.01,2013-04-03 14:22:00,
2013-04-03 07:27:00,36.3,34.0,30.18,SSE,152,5.4,6.3,91,0.00,,SCT,0.00,VWS V14.01,2013-04-03 14:27:00,
2013-04-03 07:30:00,36.3,34.0,30.18,SE,132,4.9,6.7,91,0.00,,SCT,0.00,VWS V14.01,2013-04-03 14:30:00,
2013-04-03 07:32:00,36.3,34.2,30.18,South,177,0.0,4.9,92,0.00,,SCT,0.00,VWS V14.01,2013-04-03 14:32:00,
2013-04-03 07:37:00,36.3,34.2,30.18,SSE,154,0.0,4.9,92,0.00,,SCT,0.00,VWS V14.01,2013-04-03 14:37:00,
2013-04-03 07:42:00,36.7,34.6,30.18,South,172,6.3,8.7,92,0.00,,SCT,0.00,VWS V14.01,2013-04-03 14:42:00,
2013-04-03 07:45:00,36.7,34.8,30.18,ENE,78,0.0,8.7,93,0.00,,SCT,0.00,VWS V14.01,2013-04-03 14:45:00,
2013-04-03 07:47:00,36.7,34.6,30.18,ENE,72,3.1,5.4,92,0.00,,SCT,0.00,VWS V14.01,2013-04-03 14:47:00,
2013-04-03 07:52:00,36.9,34.8,30.18,East,97,0.0,8.3,92,0.00,,SCT,0.00,VWS V14.01,2013-04-03 14:52:00,
2013-04-03 07:57:00,36.9,34.2,30.18,SE,144,5.8,8.3,90,0.00,,SCT,0.00,VWS V14.01,2013-04-03 14:57:00,
2013-04-03 08:00:00,36.7,33.8,30.18,ENE,76,5.4,8.3,89,0.00,,SCT,0.00,VWS V14.01,2013-04-03 15:00:00,
2013-04-03 08:02:00,36.7,33.8,30.18,SSE,157,3.1,5.4,89,0.00,,SCT,0.00,VWS V14.01,2013-04-03 15:02:00,
2013-04-03 08:07:00,36.3,33.4,30.18,SSW,208,4.0,8.7,89,0.00,,SCT,0.00,VWS V14.01,2013-04-03 15:07:00,
2013-04-03 08:12:00,36.3,33.7,30.18,SSE,159,4.9,8.7,90,0.00,,SCT,0.00,VWS V14.01,2013-04-03 15:12:00,
2013-04-03 08:15:00,36.3,33.7,30.18,SSE,167,0.0,8.7,90,0.00,,SCT,0.00,VWS V14.01,2013-04-03 15:15:00,
2013-04-03 08:17:00,36.3,34.0,30.18,SSE,156,4.0,8.3,91,0.00,,SCT,0.00,VWS V14.01,2013-04-03 15:17:00,
2013-04-03 08:22:00,36.5,34.1,30.18,SE,140,6.3,8.3,91,0.00,,SCT,0.00,VWS V14.01,2013-04-03 15:22:00,
2013-04-03 08:28:00,36.9,34.5,30.18,SSE,160,4.9,8.3,91,0.00,,SCT,0.00,VWS V14.01,2013-04-03 15:28:00,
2013-04-03 08:30:00,36.9,34.5,30.18,SE,143,8.3,8.3,91,0.00,,SCT,0.00,VWS V14.01,2013-04-03 15:30:00,
2013-04-03 08:33:00,37.0,34.7,30.18,SSW,199,4.0,8.3,91,0.00,,SCT,0.00,VWS V14.01,2013-04-03 15:33:00,
2013-04-03 08:38:00,37.4,34.7,30.18,WSW,240,0.0,8.3,90,0.00,,SCT,0.00,VWS V14.01,2013-04-03 15:38:00,
2013-04-03 08:43:00,37.6,34.9,30.18,SE,146,0.0,8.3,90,0.00,,SCT,0.00,VWS V14.01,2013-04-03 15:43:00,
2013-04-03 08:45:00,37.9,35.3,30.18,ENE,73,0.0,8.3,90,0.00,,SCT,0.00,VWS V14.01,2013-04-03 15:45:00,
2013-04-03 08:48:00,38.1,35.2,30.18,SSE,162,2.7,5.8,89,0.00,,SCT,0.00,VWS V14.01,2013-04-03 15:48:00,
2013-04-03 08:53:00,38.7,35.4,30.18,ESE,111,4.0,6.3,88,0.00,,SCT,0.00,VWS V14.01,2013-04-03 15:53:00,
2013-04-03 08:58:00,39.2,35.7,30.18,SSE,160,2.7,6.3,87,0.00,,SCT,0.00,VWS V14.01,2013-04-03 15:58:00,
2013-04-03 09:00:00,39.4,35.8,30.18,SSE,159,4.0,6.3,87,0.00,,SCT,0.00,VWS V14.01,2013-04-03 16:00:00,
2013-04-03 09:03:00,39.7,35.9,30.18,East,98,4.0,7.6,86,0.00,,SCT,0.00,VWS V14.01,2013-04-03 16:03:00,
2013-04-03 09:08:00,40.6,36.5,30.18,ENE,67,0.0,8.3,85,0.00,,SCT,0.00,VWS V14.01,2013-04-03 16:08:00,
2013-04-03 09:13:00,41.4,36.6,30.18,East,79,3.6,8.3,83,0.00,,SCT,0.00,VWS V14.01,2013-04-03 16:13:00,
2013-04-03 09:15:00,41.5,36.8,30.18,SE,141,3.6,8.3,83,0.00,,SCT,0.00,VWS V14.01,2013-04-03 16:15:00,
2013-04-03 09:19:00,41.9,35.9,30.18,ESE,119,5.8,7.6,79,0.00,,SCT,0.00,VWS V14.01,2013-04-03 16:19:00,
2013-04-03 09:24:00,42.3,35.6,30.18,SSE,160,8.1,8.7,77,0.00,,SCT,0.00,VWS V14.01,2013-04-03 16:24:00,
2013-04-03 09:29:00,43.3,36.6,30.18,SE,130,3.1,8.7,77,0.00,,SCT,0.00,VWS V14.01,2013-04-03 16:29:00,
2013-04-03 09:30:00,43.3,36.3,30.18,SE,143,4.9,8.7,76,0.00,,SCT,0.00,VWS V14.01,2013-04-03 16:30:00,
2013-04-03 09:34:00,43.9,36.5,30.18,SSE,164,3.6,5.8,75,0.00,,SCT,0.00,VWS V14.01,2013-04-03 16:34:00,
2013-04-03 09:39:00,44.4,36.0,30.18,SSE,152,5.8,11.0,72,0.00,,SCT,0.00,VWS V14.01,2013-04-03 16:39:00,
2013-04-03 09:44:00,45.0,36.1,30.18,ENE,62,5.4,11.0,71,0.00,,SCT,0.00,VWS V14.01,2013-04-03 16:44:00,
2013-04-03 09:45:00,45.0,36.1,30.18,SE,137,4.0,11.0,71,0.00,,SCT,0.00,VWS V14.01,2013-04-03 16:45:00,
2013-04-03 09:49:00,45.5,36.3,30.18,SE,133,5.8,8.1,70,0.00,,SCT,0.00,VWS V14.01,2013-04-03 16:49:00,
2013-04-03 09:54:00,45.9,36.3,30.18,SSW,203,2.7,10.1,69,0.00,,SCT,0.00,VWS V14.01,2013-04-03 16:54:00,
2013-04-03 10:00:00,46.4,36.0,30.18,SSE,157,8.1,10.5,67,0.00,,SCT,0.00,VWS V14.01,2013-04-03 17:00:00,
2013-04-03 10:05:00,46.8,36.0,30.18,SE,127,8.1,15.0,66,0.00,,SCT,0.00,VWS V14.01,2013-04-03 17:05:00,
2013-04-03 10:10:00,47.3,35.8,30.18,South,172,6.3,15.0,64,0.00,,SCT,0.00,VWS V14.01,2013-04-03 17:10:00,
2013-04-03 10:15:00,47.5,35.5,30.18,SSE,157,8.3,15.0,63,0.00,,SCT,0.00,VWS V14.01,2013-04-03 17:15:00,
2013-04-03 10:20:00,48.2,35.0,30.18,SSE,150,8.7,9.6,60,0.00,,SCT,0.00,VWS V14.01,2013-04-03 17:20:00,
2013-04-03 10:25:00,48.7,35.1,30.18,ESE,113,7.2,9.6,59,0.00,,SCT,0.00,VWS V14.01,2013-04-03 17:25:00,
2013-04-03 10:30:00,48.9,34.4,30.18,SSE,167,5.4,5.8,57,0.00,,SCT,0.00,VWS V14.01,2013-04-03 17:30:00,
2013-04-03 10:35:00,49.6,34.2,30.18,SE,135,7.6,13.2,55,0.00,,SCT,0.00,VWS V14.01,2013-04-03 17:35:00,
2013-04-03 10:40:00,50.0,33.6,30.18,SW,225,3.1,13.2,53,0.00,,SCT,0.00,VWS V14.01,2013-04-03 17:40:00,
2013-04-03 10:45:00,50.4,33.4,30.18,SE,127,6.3,8.3,52,0.00,,SCT,0.00,VWS V14.01,2013-04-03 17:45:00,
2013-04-03 10:50:00,50.9,32.9,30.18,SSE,151,5.8,12.8,50,0.00,,SCT,0.00,VWS V14.01,2013-04-03 17:50:00,
2013-04-03 10:56:00,51.3,32.3,30.18,South,181,10.5,12.8,48,0.00,,SCT,0.00,VWS V14.01,2013-04-03 17:56:00,
2013-04-03 11:00:00,51.4,31.9,30.18,South,169,5.8,12.8,47,0.00,,SCT,0.00,VWS V14.01,2013-04-03 18:00:00,
2013-04-03 11:01:00,51.4,32.4,30.18,South,180,7.6,11.0,48,0.00,,SCT,0.00,VWS V14.01,2013-04-03 18:01:00,
2013-04-03 11:06:00,52.0,31.3,30.18,South,186,5.8,11.9,45,0.00,,SCT,0.00,VWS V14.01,2013-04-03 18:06:00,
2013-04-03 11:12:00,52.7,32.0,30.18,SE,140,5.8,11.9,45,0.00,,SCT,0.00,VWS V14.01,2013-04-03 18:12:00,
2013-04-03 11:15:00,52.9,30.4,30.18,SE,145,6.3,11.9,42,0.00,,SCT,0.00,VWS V14.01,2013-04-03 18:15:00,
2013-04-03 11:17:00,52.9,29.8,30.18,SSE,151,11.0,11.4,41,0.00,,SCT,0.00,VWS V14.01,2013-04-03 18:17:00,
2013-04-03 11:22:00,52.9,29.8,30.18,SSE,152,6.3,11.4,41,0.00,,SCT,0.00,VWS V14.01,2013-04-03 18:22:00,
2013-04-03 11:27:00,53.2,29.6,30.15,South,189,8.3,13.2,40,0.00,,SCT,0.00,VWS V14.01,2013-04-03 18:27:00,
2013-04-03 11:30:00,53.4,29.7,30.15,South,175,9.2,13.2,40,0.00,,SCT,0.00,VWS V14.01,2013-04-03 18:30:00,
2013-04-03 11:32:00,53.6,29.3,30.15,SSE,153,11.9,11.9,39,0.00,,SCT,0.00,VWS V14.01,2013-04-03 18:32:00,
2013-04-03 11:37:00,54.5,30.1,30.15,South,176,6.7,11.9,39,0.00,,SCT,0.00,VWS V14.01,2013-04-03 18:37:00,
2013-04-03 11:42:00,54.7,29.6,30.15,SE,128,7.6,11.9,38,0.00,,SCT,0.00,VWS V14.01,2013-04-03 18:42:00,
2013-04-03 11:45:00,54.7,29.6,30.15,SSW,193,5.8,11.9,38,0.00,,SCT,0.00,VWS V14.01,2013-04-03 18:45:00,
2013-04-03 11:47:00,54.9,29.1,30.15,SSW,203,5.4,9.6,37,0.00,,SCT,0.00,VWS V14.01,2013-04-03 18:47:00,
2013-04-03 11:52:00,55.2,29.4,30.15,SSE,150,7.6,10.1,37,0.00,,SCT,0.00,VWS V14.01,2013-04-03 18:52:00,
2013-04-03 11:57:00,55.2,28.8,30.15,SSE,149,6.3,10.1,36,0.00,,SCT,0.00,VWS V14.01,2013-04-03 18:57:00,
2013-04-03 12:00:00,55.2,28.1,30.15,SSE,155,8.3,12.3,35,0.00,,SCT,0.00,VWS V14.01,2013-04-03 19:00:00,
2013-04-03 12:02:00,55.0,28.6,30.15,South,169,10.5,13.2,36,0.00,,SCT,0.00,VWS V14.01,2013-04-03 19:02:00,
2013-04-03 12:07:00,55.6,29.1,30.15,South,183,5.8,13.2,36,0.00,,SCT,0.00,VWS V14.01,2013-04-03 19:07:00,
2013-04-03 12:12:00,56.3,29.7,30.15,ESE,107,8.3,13.2,36,0.00,,SCT,0.00,VWS V14.01,2013-04-03 19:12:00,
2013-04-03 12:15:00,56.7,30.0,30.15,SSW,197,6.3,13.2,36,0.00,,SCT,0.00,VWS V14.01,2013-04-03 19:15:00,
2013-04-03 12:17:00,56.8,30.2,30.15,SSW,199,8.1,8.1,36,0.00,,SCT,0.00,VWS V14.01,2013-04-03 19:17:00,
2013-04-03 12:22:00,57.2,29.8,30.15,WSW,250,5.8,10.5,35,0.00,,SCT,0.00,VWS V14.01,2013-04-03 19:22:00,
2013-04-03 12:27:00,57.2,29.8,30.15,SSE,155,11.0,13.2,35,0.00,,SCT,0.00,VWS V14.01,2013-04-03 19:27:00,
2013-04-03 12:30:00,57.2,29.8,30.15,SE,145,6.3,13.2,35,0.00,,SCT,0.00,VWS V14.01,2013-04-03 19:30:00,
2013-04-03 12:33:00,57.6,30.1,30.15,SE,138,8.3,10.5,35,0.00,,SCT,0.00,VWS V14.01,2013-04-03 19:33:00,
2013-04-03 12:38:00,57.9,30.5,30.15,South,178,6.3,10.5,35,0.00,,SCT,0.00,VWS V14.01,2013-04-03 19:38:00,
2013-04-03 12:43:00,58.3,30.1,30.15,SSW,195,4.9,10.5,34,0.00,,SCT,0.00,VWS V14.01,2013-04-03 19:43:00,
2013-04-03 12:45:00,58.5,30.9,30.15,SE,139,7.6,10.5,35,0.00,,SCT,0.00,VWS V14.01,2013-04-03 19:45:00,
2013-04-03 12:48:00,58.8,31.2,30.15,SSE,163,0.0,8.1,35,0.00,,SCT,0.00,VWS V14.01,2013-04-03 19:48:00,
2013-04-03 12:53:00,59.4,31.0,30.15,SSE,154,8.7,9.6,34,0.00,,SCT,0.00,VWS V14.01,2013-04-03 19:53:00,
2013-04-03 12:58:00,59.7,29.8,30.15,SE,143,13.2,13.2,32,0.00,,SCT,0.00,VWS V14.01,2013-04-03 19:58:00,
2013-04-03 13:00:00,59.7,29.1,30.15,SSW,205,8.3,13.2,31,0.00,,SCT,0.00,VWS V14.01,2013-04-03 20:00:00,
2013-04-03 13:03:00,59.5,28.1,30.15,SSE,165,3.6,8.3,30,0.00,,SCT,0.00,VWS V14.01,2013-04-03 20:03:00,
2013-04-03 13:09:00,59.7,27.4,30.15,SSE,167,4.9,8.3,29,0.00,,SCT,0.00,VWS V14.01,2013-04-03 20:09:00,
2013-04-03 13:14:00,59.7,27.4,30.15,SSW,209,3.1,13.2,29,0.00,,SCT,0.00,VWS V14.01,2013-04-03 20:14:00,
2013-04-03 13:15:00,59.7,27.4,30.15,SSW,196,2.7,13.2,29,0.00,,SCT,0.00,VWS V14.01,2013-04-03 20:15:00,
2013-04-03 13:19:00,60.4,27.2,30.15,SSE,161,7.2,7.6,28,0.00,,SCT,0.00,VWS V14.01,2013-04-03 20:19:00,
2013-04-03 13:24:00,61.0,27.7,30.15,ESE,104,5.8,8.1,28,0.00,,SCT,0.00,VWS V14.01,2013-04-03 20:24:00,
2013-04-03 13:29:00,61.2,26.0,30.15,WSW,249,4.9,11.0,26,0.00,,SCT,0.00,VWS V14.01,2013-04-03 20:29:00,
2013-04-03 13:30:00,61.2,26.0,30.15,SE,128,2.7,11.0,26,0.00,,SCT,0.00,VWS V14.01,2013-04-03 20:30:00,
2013-04-03 13:34:00,61.3,27.1,30.15,SE,146,5.4,7.6,27,0.00,,SCT,0.00,VWS V14.01,2013-04-03 20:34:00,
2013-04-03 13:39:00,61.7,27.4,30.15,SSE,157,7.6,8.3,27,0.00,,SCT,0.00,VWS V14.01,2013-04-03 20:39:00,
2013-04-03 13:44:00,62.1,27.7,30.15,SE,128,3.6,10.5,27,0.00,,SCT,0.00,VWS V14.01,2013-04-03 20:44:00,
2013-04-03 13:45:00,62.1,27.7,30.15,SSE,151,5.8,10.5,27,0.00,,SCT,0.00,VWS V14.01,2013-04-03 20:45:00,
2013-04-03 13:49:00,62.2,27.9,30.15,SSE,168,12.8,12.8,27,0.00,,SCT,0.00,VWS V14.01,2013-04-03 20:49:00,
2013-04-03 13:54:00,62.6,27.3,30.15,SSE,161,6.3,12.8,26,0.00,,SCT,0.00,VWS V14.01,2013-04-03 20:54:00,
2013-04-03 14:00:00,62.8,27.4,30.15,SW,234,2.2,13.2,26,0.00,,SCT,0.00,VWS V14.01,2013-04-03 21:00:00,
2013-04-03 14:05:00,63.5,29.0,30.15,SW,234,6.3,7.6,27,0.00,,SCT,0.00,VWS V14.01,2013-04-03 21:05:00,
2013-04-03 14:10:00,63.5,28.0,30.12,SSE,158,7.6,11.0,26,0.00,,SCT,0.00,VWS V14.01,2013-04-03 21:10:00,
2013-04-03 14:15:00,64.0,27.5,30.12,SE,145,5.8,11.0,25,0.00,,SCT,0.00,VWS V14.01,2013-04-03 21:15:00,
2013-04-03 14:20:00,64.2,28.6,30.12,WSW,237,2.7,9.6,26,0.00,,SCT,0.00,VWS V14.01,2013-04-03 21:20:00,
2013-04-03 14:25:00,64.6,28.0,30.12,SSW,210,0.0,9.6,25,0.00,,SCT,0.00,VWS V14.01,2013-04-03 21:25:00,
2013-04-03 14:30:00,65.1,28.5,30.12,SW,229,0.0,9.6,25,0.00,,SCT,0.00,VWS V14.01,2013-04-03 21:30:00,
2013-04-03 14:35:00,64.9,28.3,30.12,SW,234,0.0,5.4,25,0.00,,SCT,0.00,VWS V14.01,2013-04-03 21:35:00,
2013-04-03 14:40:00,65.1,28.5,30.12,WNW,303,5.4,8.3,25,0.00,,SCT,0.00,VWS V14.01,2013-04-03 21:40:00,
2013-04-03 14:45:00,64.9,28.3,30.12,SE,134,6.3,6.3,25,0.00,,SCT,0.00,VWS V14.01,2013-04-03 21:45:00,
2013-04-03 14:50:00,64.8,28.1,30.12,WSW,241,5.8,11.0,25,0.00,,SCT,0.00,VWS V14.01,2013-04-03 21:50:00,
2013-04-03 14:55:00,64.9,28.3,30.12,SSE,156,8.3,11.0,25,0.00,,SCT,0.00,VWS V14.01,2013-04-03 21:55:00,
2013-04-03 15:00:00,64.9,27.3,30.12,SSE,163,5.4,5.4,24,0.00,,SCT,0.00,VWS V14.01,2013-04-03 22:00:00,
2013-04-03 15:05:00,64.8,28.1,30.12,South,187,5.8,8.1,25,0.00,,SCT,0.00,VWS V14.01,2013-04-03 22:05:00,
2013-04-03 15:10:00,64.6,27.0,30.12,SSW,204,4.0,8.1,24,0.00,,SCT,0.00,VWS V14.01,2013-04-03 22:10:00,
2013-04-03 15:15:00,65.1,28.5,30.12,South,185,4.9,5.4,25,0.00,,SCT,0.00,VWS V14.01,2013-04-03 22:15:00,
2013-04-03 15:20:00,66.2,28.4,30.12,SSW,192,0.0,5.4,24,0.00,,SCT,0.00,VWS V14.01,2013-04-03 22:20:00,
2013-04-03 15:25:00,67.1,29.1,30.12,South,185,5.4,10.5,24,0.00,,SCT,0.00,VWS V14.01,2013-04-03 22:25:00,
2013-04-03 15:30:00,66.6,27.6,30.12,SSE,147,8.3,8.3,23,0.00,,SCT,0.00,VWS V14.01,2013-04-03 22:30:00,
2013-04-03 15:35:00,66.7,28.8,30.12,SE,144,4.5,10.5,24,0.00,,SCT,0.00,VWS V14.01,2013-04-03 22:35:00,
2013-04-03 15:40:00,66.7,28.8,30.12,SE,141,4.0,10.5,24,0.00,,SCT,0.00,VWS V14.01,2013-04-03 22:40:00,
2013-04-03 15:45:00,67.3,29.3,30.12,NW,308,0.0,0.0,24,0.00,,SCT,0.00,VWS V14.01,2013-04-03 22:45:00,
2013-04-03 15:50:00,67.6,29.6,30.12,SSW,211,0.0,7.6,24,0.00,,SCT,0.00,VWS V14.01,2013-04-03 22:50:00,
2013-04-03 15:55:00,67.3,29.3,30.12,ESE,102,2.7,7.6,24,0.00,,SCT,0.00,VWS V14.01,2013-04-03 22:55:00,
2013-04-03 16:00:00,67.1,29.1,30.12,SSW,197,0.0,7.6,24,0.00,,SCT,0.00,VWS V14.01,2013-04-03 23:00:00,
2013-04-03 16:01:00,67.1,29.1,30.12,ESE,123,0.0,0.0,24,0.00,,SCT,0.00,VWS V14.01,2013-04-03 23:01:00,
2013-04-03 16:06:00,67.1,29.1,30.12,SW,222,0.0,4.5,24,0.00,,SCT,0.00,VWS V14.01,2013-04-03 23:06:00,
2013-04-03 16:11:00,67.6,29.6,30.09,WSW,243,0.0,4.5,24,0.00,,SCT,0.00,VWS V14.01,2013-04-03 23:11:00,
2013-04-03 16:15:00,67.5,29.4,30.09,SE,143,4.0,4.9,24,0.00,,SCT,0.00,VWS V14.01,2013-04-03 23:15:00,
2013-04-03 16:16:00,67.5,29.4,30.09,South,173,3.1,4.0,24,0.00,,SCT,0.00,VWS V14.01,2013-04-03 23:16:00,
2013-04-03 16:21:00,67.1,29.1,30.09,SSW,207,0.0,6.3,24,0.00,,SCT,0.00,VWS V14.01,2013-04-03 23:21:00,
2013-04-03 16:27:00,67.5,29.4,30.09,NE,55,0.0,8.3,24,0.00,,SCT,0.00,VWS V14.01,2013-04-03 23:27:00,
2013-04-03 16:30:00,67.6,29.6,30.09,SE,146,5.8,8.3,24,0.00,,SCT,0.00,VWS V14.01,2013-04-03 23:30:00,
2013-04-03 16:32:00,67.3,29.3,30.09,SSE,149,5.8,8.7,24,0.00,,SCT,0.00,VWS V14.01,2013-04-03 23:32:00,
2013-04-03 16:37:00,67.1,29.1,30.09,NNW,332,0.0,8.7,24,0.00,,SCT,0.00,VWS V14.01,2013-04-03 23:37:00,
2013-04-03 16:42:00,67.5,29.4,30.09,ESE,115,0.0,8.7,24,0.00,,SCT,0.00,VWS V14.01,2013-04-03 23:42:00,
2013-04-03 16:45:00,67.8,29.7,30.09,ENE,74,0.0,8.7,24,0.00,,SCT,0.00,VWS V14.01,2013-04-03 23:45:00,
2013-04-03 16:47:00,68.0,28.9,30.09,ESE,107,0.0,0.0,23,0.00,,SCT,0.00,VWS V14.01,2013-04-03 23:47:00,
2013-04-03 16:52:00,67.8,29.7,30.09,WSW,243,3.1,4.0,24,0.00,,SCT,0.00,VWS V14.01,2013-04-03 23:52:00,
2013-04-03 16:57:00,67.6,28.5,30.09,SSW,207,0.0,5.4,23,0.00,,SCT,0.00,VWS V14.01,2013-04-03 23:57:00,
2013-04-03 17:00:00,67.6,28.5,30.09,WNW,290,0.0,5.4,23,0.00,,SCT,0.00,VWS V14.01,2013-04-04 00:00:00,
2013-04-03 17:02:00,67.8,29.7,30.09,SE,145,0.0,0.0,24,0.00,,SCT,0.00,VWS V14.01,2013-04-04 00:02:00,
2013-04-03 17:07:00,67.8,28.7,30.09,South,188,0.0,0.0,23,0.00,,SCT,0.00,VWS V14.01,2013-04-04 00:07:00,
2013-04-03 17:13:00,67.8,28.7,30.09,WNW,295,0.0,0.0,23,0.00,,SCT,0.00,VWS V14.01,2013-04-04 00:13:00,
2013-04-03 17:15:00,67.8,28.7,30.09,South,175,2.2,4.5,23,0.00,,SCT,0.00,VWS V14.01,2013-04-04 00:15:00,
2013-04-03 17:18:00,67.5,28.4,30.09,West,262,0.0,2.2,23,0.00,,SCT,0.00,VWS V14.01,2013-04-04 00:18:00,
2013-04-03 17:23:00,67.3,28.2,30.09,South,169,0.0,2.2,23,0.00,,SCT,0.00,VWS V14.01,2013-04-04 00:23:00,
2013-04-03 17:28:00,66.9,27.9,30.09,SSW,201,0.0,2.2,23,0.00,,SCT,0.00,VWS V14.01,2013-04-04 00:28:00,
2013-04-03 17:30:00,66.9,27.9,30.09,SSW,201,0.0,2.2,23,0.00,,SCT,0.00,VWS V14.01,2013-04-04 00:30:00,
2013-04-03 17:33:00,67.1,28.1,30.09,NW,308,0.0,0.0,23,0.00,,SCT,0.00,VWS V14.01,2013-04-04 00:33:00,
2013-04-03 17:38:00,67.3,29.3,30.09,NNW,336,0.0,4.5,24,0.00,,SCT,0.00,VWS V14.01,2013-04-04 00:38:00,
2013-04-03 17:43:00,67.3,29.3,30.09,NNW,344,0.0,4.5,24,0.00,,SCT,0.00,VWS V14.01,2013-04-04 00:43:00,
2013-04-03 17:45:00,67.3,29.3,30.09,NW,325,0.0,4.5,24,0.00,,SCT,0.00,VWS V14.01,2013-04-04 00:45:00,
2013-04-03 17:48:00,67.1,29.1,30.09,NW,325,0.0,0.0,24,0.00,,SCT,0.00,VWS V14.01,2013-04-04 00:48:00,
2013-04-03 17:53:00,66.4,28.5,30.09,NNW,336,0.0,7.6,24,0.00,,SCT,0.00,VWS V14.01,2013-04-04 00:53:00,
2013-04-03 17:58:00,65.8,29.1,30.09,NNW,328,0.0,7.6,25,0.00,,SCT,0.00,VWS V14.01,2013-04-04 00:58:00,
2013-04-03 18:00:00,65.8,29.1,30.09,NNW,330,5.4,7.6,25,0.00,,SCT,0.00,VWS V14.01,2013-04-04 01:00:00,
2013-04-03 18:03:00,65.8,29.1,30.09,NW,326,0.0,5.4,25,0.00,,SCT,0.00,VWS V14.01,2013-04-04 01:03:00,
2013-04-03 18:08:00,65.8,29.1,30.09,NW,326,0.0,5.4,25,0.00,,SCT,0.00,VWS V14.01,2013-04-04 01:08:00,
2013-04-03 18:13:00,65.7,28.9,30.09,NNW,327,0.0,5.4,25,0.00,,SCT,0.00,VWS V14.01,2013-04-04 01:13:00,
2013-04-03 18:15:00,65.5,28.8,30.09,NW,326,0.0,5.4,25,0.00,,SCT,0.00,VWS V14.01,2013-04-04 01:15:00,
2013-04-03 18:18:00,65.3,28.6,30.09,NW,326,0.0,0.0,25,0.00,,SCT,0.00,VWS V14.01,2013-04-04 01:18:00,
2013-04-03 18:23:00,64.9,28.3,30.09,NNW,341,0.0,0.0,25,0.00,,SCT,0.00,VWS V14.01,2013-04-04 01:23:00,
2013-04-03 18:28:00,64.6,28.0,30.09,NNW,341,0.0,0.0,25,0.00,,SCT,0.00,VWS V14.01,2013-04-04 01:28:00,
2013-04-03 18:30:00,64.4,27.8,30.09,NNW,337,0.0,0.0,25,0.00,,SCT,0.00,VWS V14.01,2013-04-04 01:30:00,
2013-04-03 18:34:00,64.0,28.5,30.09,NNW,338,0.0,0.0,26,0.00,,SCT,0.00,VWS V14.01,2013-04-04 01:34:00,
2013-04-03 18:39:00,63.7,28.2,30.09,NNW,333,0.0,0.0,26,0.00,,SCT,0.00,VWS V14.01,2013-04-04 01:39:00,
2013-04-03 18:44:00,63.3,27.9,30.09,NNW,333,0.0,0.0,26,0.00,,SCT,0.00,VWS V14.01,2013-04-04 01:44:00,
2013-04-03 18:45:00,63.1,27.7,30.09,NNW,333,0.0,0.0,26,0.00,,SCT,0.00,VWS V14.01,2013-04-04 01:45:00,
2013-04-03 18:49:00,63.0,28.5,30.09,NNW,333,0.0,0.0,27,0.00,,SCT,0.00,VWS V14.01,2013-04-04 01:49:00,
2013-04-03 18:54:00,62.8,28.3,30.09,NNW,333,0.0,0.0,27,0.00,,SCT,0.00,VWS V14.01,2013-04-04 01:54:00,
2013-04-03 19:00:00,62.6,28.2,30.09,NNW,333,0.0,0.0,27,0.00,,SCT,0.00,VWS V14.01,2013-04-04 02:00:00,
2013-04-03 19:05:00,62.2,28.8,30.09,NNW,333,0.0,0.0,28,0.00,,SCT,0.00,VWS V14.01,2013-04-04 02:05:00,
2013-04-03 19:10:00,62.1,28.6,30.09,NNW,333,0.0,0.0,28,0.00,,SCT,0.00,VWS V14.01,2013-04-04 02:10:00,
2013-04-03 19:15:00,61.5,28.1,30.09,NNW,333,0.0,0.0,28,0.00,,SCT,0.00,VWS V14.01,2013-04-04 02:15:00,
2013-04-03 19:20:00,61.2,28.7,30.09,NNW,333,0.0,0.0,29,0.00,,SCT,0.00,VWS V14.01,2013-04-04 02:20:00,
2013-04-03 19:25:00,61.0,28.5,30.06,NNW,333,0.0,0.0,29,0.00,,SCT,0.00,VWS V14.01,2013-04-04 02:25:00,
2013-04-03 19:30:00,60.6,28.2,30.06,NNW,333,0.0,0.0,29,0.00,,SCT,0.00,VWS V14.01,2013-04-04 02:30:00,
2013-04-03 19:35:00,60.4,28.9,30.06,NNW,333,0.0,0.0,30,0.00,,SCT,0.00,VWS V14.01,2013-04-04 02:35:00,
2013-04-03 19:40:00,60.1,28.6,30.06,NNW,333,0.0,0.0,30,0.00,,SCT,0.00,VWS V14.01,2013-04-04 02:40:00,
2013-04-03 19:45:00,59.7,28.3,30.06,NNW,333,0.0,0.0,30,0.00,,SCT,0.00,VWS V14.01,2013-04-04 02:45:00,
2013-04-03 19:50:00,59.4,27.9,30.06,NNW,333,0.0,0.0,30,0.00,,SCT,0.00,VWS V14.01,2013-04-04 02:50:00,
2013-04-03 19:55:00,59.2,27.8,30.06,NNW,333,0.0,0.0,30,0.00,,SCT,0.00,VWS V14.01,2013-04-04 02:55:00,
2013-04-03 20:00:00,58.8,28.3,30.06,NNW,333,0.0,0.0,31,0.00,,SCT,0.00,VWS V14.01,2013-04-04 03:00:00,
2013-04-03 20:05:00,58.5,28.0,30.06,NW,326,0.0,0.0,31,0.00,,SCT,0.00,VWS V14.01,2013-04-04 03:05:00,
2013-04-03 20:10:00,58.1,27.6,30.06,NNW,332,0.0,0.0,31,0.00,,SCT,0.00,VWS V14.01,2013-04-04 03:10:00,
2013-04-03 20:15:00,57.7,28.1,30.06,NNW,332,0.0,0.0,32,0.00,,SCT,0.00,VWS V14.01,2013-04-04 03:15:00,
2013-04-03 20:20:00,57.6,28.7,30.06,NNW,332,0.0,0.0,33,0.00,,SCT,0.00,VWS V14.01,2013-04-04 03:20:00,
2013-04-03 20:25:00,57.2,28.4,30.09,NNW,332,0.0,0.0,33,0.00,,SCT,0.00,VWS V14.01,2013-04-04 03:25:00,
2013-04-03 20:30:00,56.8,28.8,30.09,NNW,332,0.0,0.0,34,0.00,,SCT,0.00,VWS V14.01,2013-04-04 03:30:00,
2013-04-03 20:35:00,56.7,29.3,30.09,NNW,334,0.0,0.0,35,0.00,,SCT,0.00,VWS V14.01,2013-04-04 03:35:00,
2013-04-03 20:41:00,56.5,29.2,30.09,NNW,336,0.0,0.0,35,0.00,,SCT,0.00,VWS V14.01,2013-04-04 03:41:00,
2013-04-03 20:45:00,56.3,29.0,30.09,NNW,334,0.0,0.0,35,0.00,,SCT,0.00,VWS V14.01,2013-04-04 03:45:00,
2013-04-03 20:46:00,56.3,29.0,30.09,NNW,337,0.0,0.0,35,0.00,,SCT,0.00,VWS V14.01,2013-04-04 03:46:00,
2013-04-03 20:51:00,56.1,28.9,30.09,NW,325,0.0,0.0,35,0.00,,SCT,0.00,VWS V14.01,2013-04-04 03:51:00,
2013-04-03 20:56:00,55.9,29.4,30.09,NW,325,0.0,0.0,36,0.00,,SCT,0.00,VWS V14.01,2013-04-04 03:56:00,
2013-04-03 21:00:00,55.8,29.2,30.09,NNW,337,0.0,0.0,36,0.00,,SCT,0.00,VWS V14.01,2013-04-04 04:00:00,
2013-04-03 21:05:00,55.8,29.2,30.09,NNW,327,0.0,3.6,36,0.00,,SCT,0.00,VWS V14.01,2013-04-04 04:05:00,
2013-04-03 21:10:00,55.6,29.1,30.06,NNW,334,0.0,3.6,36,0.00,,SCT,0.00,VWS V14.01,2013-04-04 04:10:00,
2013-04-03 21:15:00,55.6,29.1,30.06,NNW,333,0.0,0.0,36,0.00,,SCT,0.00,VWS V14.01,2013-04-04 04:15:00,
2013-04-03 21:20:00,55.4,28.9,30.06,NNW,327,0.0,0.0,36,0.00,,SCT,0.00,VWS V14.01,2013-04-04 04:20:00,
2013-04-03 21:25:00,55.4,28.9,30.06,NNW,328,0.0,0.0,36,0.00,,SCT,0.00,VWS V14.01,2013-04-04 04:25:00,
2013-04-03 21:30:00,55.2,29.4,30.06,NNW,328,0.0,0.0,37,0.00,,SCT,0.00,VWS V14.01,2013-04-04 04:30:00,
2013-04-03 21:31:00,55.2,29.4,30.06,NNW,328,0.0,0.0,37,0.00,,SCT,0.00,VWS V14.01,2013-04-04 04:31:00,
2013-04-03 21:36:00,55.0,29.3,30.06,NW,322,0.0,0.0,37,0.00,,SCT,0.00,VWS V14.01,2013-04-04 04:36:00,
2013-04-03 21:41:00,54.9,29.1,30.06,NNW,334,0.0,0.0,37,0.00,,SCT,0.00,VWS V14.01,2013-04-04 04:41:00,
2013-04-03 21:45:00,54.9,29.1,30.06,NNW,334,0.0,0.0,37,0.00,,SCT,0.00,VWS V14.01,2013-04-04 04:45:00,
2013-04-03 21:46:00,54.9,29.1,30.06,NNW,334,0.0,0.0,37,0.00,,SCT,0.00,VWS V14.01,2013-04-04 04:46:00,
2013-04-03 21:51:00,54.9,29.8,30.06,NNW,334,0.0,0.0,38,0.00,,SCT,0.00,VWS V14.01,2013-04-04 04:51:00,
2013-04-03 21:56:00,54.9,29.8,30.06,NNW,334,0.0,0.0,38,0.00,,SCT,0.00,VWS V14.01,2013-04-04 04:56:00,
2013-04-03 22:00:00,54.9,29.8,30.06,NNW,334,0.0,0.0,38,0.00,,SCT,0.00,VWS V14.01,2013-04-04 05:00:00,
2013-04-03 22:01:00,54.9,29.8,30.06,NNW,334,0.0,0.0,38,0.00,,SCT,0.00,VWS V14.01,2013-04-04 05:01:00,
2013-04-03 22:07:00,54.5,29.4,30.06,NNW,334,0.0,0.0,38,0.00,,SCT,0.00,VWS V14.01,2013-04-04 05:07:00,
2013-04-03 22:12:00,54.5,29.4,30.06,NNW,334,0.0,0.0,38,0.00,,SCT,0.00,VWS V14.01,2013-04-04 05:12:00,
2013-04-03 22:15:00,54.3,29.3,30.06,NNW,334,0.0,0.0,38,0.00,,SCT,0.00,VWS V14.01,2013-04-04 05:15:00,
2013-04-03 22:17:00,54.3,29.3,30.06,NNW,334,0.0,0.0,38,0.00,,SCT,0.00,VWS V14.01,2013-04-04 05:17:00,
2013-04-03 22:22:00,54.3,29.3,30.06,NNW,335,0.0,0.0,38,0.00,,SCT,0.00,VWS V14.01,2013-04-04 05:22:00,
2013-04-03 22:27:00,54.1,29.1,30.06,NNW,335,0.0,0.0,38,0.00,,SCT,0.00,VWS V14.01,2013-04-04 05:27:00,
2013-04-03 22:30:00,54.1,29.1,30.06,NNW,334,0.0,0.0,38,0.00,,SCT,0.00,VWS V14.01,2013-04-04 05:30:00,
2013-04-03 22:32:00,54.0,29.0,30.06,NNW,334,0.0,0.0,38,0.00,,SCT,0.00,VWS V14.01,2013-04-04 05:32:00,
2013-04-03 22:37:00,54.0,29.0,30.06,NNW,334,0.0,0.0,38,0.00,,SCT,0.00,VWS V14.01,2013-04-04 05:37:00,
2013-04-03 22:42:00,53.8,28.8,30.06,NNW,334,0.0,0.0,38,0.00,,SCT,0.00,VWS V14.01,2013-04-04 05:42:00,
2013-04-03 22:45:00,53.8,28.8,30.06,NNW,334,0.0,0.0,38,0.00,,SCT,0.00,VWS V14.01,2013-04-04 05:45:00,
2013-04-03 22:47:00,53.8,28.8,30.06,NNW,334,0.0,0.0,38,0.00,,SCT,0.00,VWS V14.01,2013-04-04 05:47:00,
2013-04-03 22:52:00,53.6,29.3,30.06,NNW,334,0.0,0.0,39,0.00,,SCT,0.00,VWS V14.01,2013-04-04 05:52:00,
2013-04-03 22:57:00,53.6,29.3,30.06,NNW,334,0.0,0.0,39,0.00,,SCT,0.00,VWS V14.01,2013-04-04 05:57:00,
2013-04-03 23:00:00,53.6,29.3,30.06,NNW,334,0.0,0.0,39,0.00,,SCT,0.00,VWS V14.01,2013-04-04 06:00:00,
2013-04-03 23:02:00,53.4,29.1,30.06,NNW,334,0.0,0.0,39,0.00,,SCT,0.00,VWS V14.01,2013-04-04 06:02:00,
2013-04-03 23:07:00,53.2,28.9,30.06,NNW,334,0.0,0.0,39,0.00,,SCT,0.00,VWS V14.01,2013-04-04 06:07:00,
2013-04-03 23:12:00,53.2,29.6,30.06,NNW,334,0.0,0.0,40,0.00,,SCT,0.00,VWS V14.01,2013-04-04 06:12:00,
2013-04-03 23:15:00,53.2,29.6,30.06,NNW,334,0.0,0.0,40,0.00,,SCT,0.00,VWS V14.01,2013-04-04 06:15:00,
2013-04-03 23:17:00,53.2,29.6,30.06,NNW,334,0.0,0.0,40,0.00,,SCT,0.00,VWS V14.01,2013-04-04 06:17:00,
2013-04-03 23:22:00,53.2,29.6,30.06,NNW,334,0.0,0.0,40,0.00,,SCT,0.00,VWS V14.01,2013-04-04 06:22:00,
2013-04-03 23:28:00,53.2,29.6,30.06,NNW,334,0.0,0.0,40,0.00,,SCT,0.00,VWS V14.01,2013-04-04 06:28:00,
2013-04-03 23:30:00,53.2,29.6,30.06,NNW,334,0.0,0.0,40,0.00,,SCT,0.00,VWS V14.01,2013-04-04 06:30:00,
2013-04-03 23:33:00,53.1,29.4,30.06,NNW,334,0.0,0.0,40,0.00,,SCT,0.00,VWS V14.01,2013-04-04 06:33:00,
2013-04-03 23:38:00,53.1,29.4,30.06,NNW,334,0.0,0.0,40,0.00,,SCT,0.00,VWS V14.01,2013-04-04 06:38:00,
2013-04-03 23:43:00,53.1,29.4,30.06,NNW,334,0.0,0.0,40,0.00,,SCT,0.00,VWS V14.01,2013-04-04 06:43:00,
2013-04-03 23:45:00,53.1,29.4,30.06,NNW,334,0.0,0.0,40,0.00,,SCT,0.00,VWS V14.01,2013-04-04 06:45:00,
2013-04-03 23:48:00,53.1,29.4,30.06,NNW,334,0.0,0.0,40,0.00,,SCT,0.00,VWS V14.01,2013-04-04 06:48:00,
2013-04-03 23:53:00,53.1,29.4,30.06,NNW,334,0.0,0.0,40,0.00,,SCT,0.00,VWS V14.01,2013-04-04 06:53:00,
2013-04-03 23:58:00,53.1,29.4,30.06,NNW,334,0.0,0.0,40,0.00,,SCT,0.00,VWS V14.01,2013-04-04 06:58:00,